Location: Burleson Fire Department Station 2
(32.5391°N, 97.3075°W)
Time: 16:35:16
(UTC+00:00)

DUCHIFAT 1 - Visible Passes

Search period start: 03 December 2024 00:00
Search period end: 13 December 2024 00:00
Orbit: 510 x 521 km, 98.1° (Epoch: 02 December)

Date Brightness Start Highest point End Pass type
(mag) Time Alt. Az. Time Alt. Az. Time Alt. Az.
03 Dec ? 00:02:59 10° SSW 00:06:06 24° W 00:09:13 10° NW visible
03 Dec ? 11:38:26 10° NNE 11:41:57 37° E 11:45:27 10° SSE visible
03 Dec ? 23:47:40 10° S 23:51:12 38° W 23:54:47 10° NNW visible
04 Dec ? 11:23:59 10° NE 11:27:03 23° E 11:30:05 10° SSE visible
05 Dec ? 11:09:52 10° ENE 11:12:03 15° E 11:14:14 10° SE visible
05 Dec ? 12:42:50 10° NNW 12:46:00 26° WNW 12:49:09 10° SW visible
06 Dec ? 12:27:32 10° N 12:31:06 42° WNW 12:34:38 10° SW visible
07 Dec ? 12:12:22 10° N 12:16:06 71° WNW 12:19:49 10° SSW visible
08 Dec ? 00:23:18 10° SW 00:25:23 14° W 00:27:29 10° WNW visible
08 Dec ? 11:57:17 10° NNE 12:01:02 68° ESE 12:04:44 10° S visible
09 Dec ? 00:07:10 10° SSW 00:10:11 23° W 00:13:12 10° NW visible
09 Dec ? 11:42:18 10° NNE 11:45:52 40° E 11:49:23 10° S visible
09 Dec ? 23:51:27 10° SSW 23:54:57 36° W 23:58:28 10° NNW visible
10 Dec ? 11:27:30 10° NE 11:30:37 24° E 11:33:41 10° SSE visible
11 Dec ? 11:13:00 10° ENE 11:15:15 15° E 11:17:31 10° SE visible
11 Dec ? 12:46:04 10° NNW 12:49:10 25° WNW 12:52:16 10° SW visible
12 Dec ? 12:30:24 10° N 12:33:56 40° WNW 12:37:26 10° SW visible
